This is the latest recevied weather packets stored in our database for station/object IW3HBX-13. If no packets are shown the sender has not sent any weather packets the latest 1 day(s).
| Time | Temp. | Humidity | Pressure | Rain* | Wind** | Luminosity | Snow |
|---|---|---|---|---|---|---|---|
| 1778003649 | 13.89° C | 93% | 1013.6 hPa | 0 mm | 1.34 m/s, 66° | 5 W/m² | - |
| 1778003290 | 13.89° C | 93% | 1013.7 hPa | 0 mm | 1.34 m/s, 82° | 5 W/m² | - |
| 1778002928 | 13.89° C | 93% | 1013.7 hPa | 0 mm | 0.89 m/s, 360° | 4 W/m² | - |
| 1778002569 | 13.89° C | 93% | 1013.7 hPa | 0 mm | 1.34 m/s, 37° | 5 W/m² | - |
| 1778001847 | 13.89° C | 93% | 1013.7 hPa | 0 mm | 1.34 m/s, 66° | 14 W/m² | - |
| 1778001487 | 13.89° C | 93% | 1013.6 hPa | 0 mm | 0.89 m/s, 66° | 10 W/m² | - |
| 1778001130 | 13.89° C | 93% | 1013.6 hPa | 0 mm | 1.34 m/s, 70° | 7 W/m² | - |
| 1778000767 | 13.89° C | 93% | 1013.7 hPa | 0 mm | 1.79 m/s, 70° | 9 W/m² | - |
| 1778000047 | 13.89° C | 94% | 1013.6 hPa | 0 mm | 1.34 m/s, 77° | 10 W/m² | - |
| 1777999687 | 13.89° C | 94% | 1013.7 hPa | 0 mm | 1.79 m/s, 75° | 15 W/m² | - |
| 1777999327 | 13.89° C | 94% | 1013.7 hPa | 0 mm | 0.89 m/s, 64° | 17 W/m² | - |
| 1777998969 | 13.89° C | 94% | 1013.8 hPa | 0 mm | 1.34 m/s, 69° | 14 W/m² | - |
| 1777998250 | 13.89° C | 94% | 1013.8 hPa | 0 mm | 1.79 m/s, 65° | 32 W/m² | - |
| 1777997887 | 13.89° C | 94% | 1013.9 hPa | 0 mm | 1.79 m/s, 68° | 26 W/m² | - |
| 1777997530 | 13.89° C | 94% | 1014 hPa | 0 mm | 1.34 m/s, 56° | 16 W/m² | - |
| 1777997167 | 13.89° C | 93% | 1014 hPa | 0 mm | 1.34 m/s, 68° | 22 W/m² | - |
| 1777996447 | 13.89° C | 94% | 1014 hPa | 0 mm | 3.13 m/s, 62° | 27 W/m² | - |
| 1777996089 | 13.89° C | 94% | 1014.1 hPa | 0 mm | 2.24 m/s, 63° | 12 W/m² | - |
| 1777995728 | 13.89° C | 94% | 1014.1 hPa | 0 mm | 1.34 m/s, 27° | 10 W/m² | - |
| 1777995367 | 13.89° C | 94% | 1014.1 hPa | 0 mm | 0.89 m/s, 300° | 12 W/m² | - |
| 1777994647 | 13.89° C | 94% | 1014 hPa | 0 mm | 1.34 m/s, 62° | 30 W/m² | - |
| 1777994287 | 13.89° C | 94% | 1014 hPa | 0 mm | 1.34 m/s, 68° | 29 W/m² | - |
| 1777993927 | 13.89° C | 94% | 1014 hPa | 0 mm | 0.89 m/s, 22° | 27 W/m² | - |
| 1777993567 | 13.89° C | 94% | 1013.9 hPa | 0 mm | 0.89 m/s, 71° | 23 W/m² | - |
| 1777992847 | 13.89° C | 94% | 1014 hPa | 0.51 mm | 1.34 m/s, 75° | 36 W/m² | - |
* Rain latest hour (hover to see other rain measurements)
** Current wind speed in m/s (hover to see current wind gust speed)